(505811) = 2000 RJ63 = 2011 CD107 = 2015 BV416

Discovered at Socorro on 2000-09-02 by LINEAR.

Orbit

Orbit type: Main Belt

Note: WebGL enabled browser required.

epoch2024-03-31.0
epoch JD2460400.5
perihelion date2021-07-10.40617
perihelion JD2459405.90617
argument of perihelion (°)2.46478
ascending node (°)331.98096
inclination (°)14.27751
eccentricity0.2633799
perihelion distance (AU)1.9042606
Tisserand w.r.t. Jupiter3.3
ΔV w.r.t. Earth (km/sec)9.7
semimajor axis (AU)2.5851326
mean anomaly (°)235.84429
mean daily motion (°/day)0.23712620
aphelion distance (AU)3.266
period (years)4.16
P-vector [x]0.90155317
P-vector [y]-0.40106494
P-vector [z]-0.16232313
Q-vector [x]0.41686929
Q-vector [y]0.70472889
Q-vector [z]0.57408814
absolute magnitude16.65
phase slope0.15
uncertainty0
referenceMPEC 2024-E179
observations used353
oppositions10
arc length (days)8177
first opposition used2000
last opposition used2023
residual rms (arc-secs)0.64
perturbers coarse indicatorM-v
perturbers precise indicator003Ek
first observation date used2000-09-02.0
last observation date used2023-01-22.0
computer nameMPCLINUX
JD of orbit computation2458058.104690
perihelion JD uncertainty (days)3.9155E-05
argument of perihelion uncertainty (°)1.7059E-05
ascending node uncertainty (°)1.5193E-05
inclination uncertainty (°)4.2020E-06
eccentricity uncertainty 4.7406E-08
perihelion distance uncertainty (AU)1.1924E-07
Minimum Orbit Intersection Distances (in AU)
for orbit epoch: 2460400.5, reference: E2024-G77
Mercury1.50271
Venus1.17865
Earth0.89417
Mars0.52453
Jupiter2.10863
Saturn5.97843
Uranus15.1831
Neptune27.1105

Observations

358 total observations over interval: 2000 09 02.19988 – 2023 01 22.393286
These data are available for download (format description).

Date (UT) J2000 RA J2000 Dec Magn Location Ref
2000 09 02.19988 20 55 58.89 -20 47 34.2 18.6   704 – Lincoln Laboratory ETS, New Mexico MPS 18490
2000 09 02.21290 20 55 58.37 -20 47 25.6 18.6   704 – Lincoln Laboratory ETS, New Mexico MPS 18490
2000 09 02.22654 20 55 57.81 -20 47 17.1 19.0   704 – Lincoln Laboratory ETS, New Mexico MPS 18490
2000 09 04.25720 20 54 39.06 -20 25 24.5 18.9   704 – Lincoln Laboratory ETS, New Mexico MPS 18490
2000 09 04.27073 20 54 38.50 -20 25 15.7 19.4   704 – Lincoln Laboratory ETS, New Mexico MPS 18490
2000 09 04.28422 20 54 37.98 -20 25 07.4 19.1   704 – Lincoln Laboratory ETS, New Mexico MPS 18490
2011 02 04.45887 10 44 30.035 +07 51 56.70 21.6 w F51 – Pan-STARRS 1, Haleakala MPS 390688
2011 02 04.47312 10 44 29.330 +07 51 58.19 21.6 w F51 – Pan-STARRS 1, Haleakala MPS 390688
2011 02 04.48758 10 44 28.613 +07 51 59.68 21.9 w F51 – Pan-STARRS 1, Haleakala MPS 390688
2011 02 05.44632 10 43 41.897 +07 53 36.13 22.1 w F51 – Pan-STARRS 1, Haleakala MPS 390688
2011 02 05.46058 10 43 41.155 +07 53 37.48 21.7 w F51 – Pan-STARRS 1, Haleakala MPS 390688
2011 02 05.47502 10 43 40.435 +07 53 39.05 21.4 w F51 – Pan-STARRS 1, Haleakala MPS 390688
2011 02 05.48944 10 43 39.710 +07 53 40.46 21.5 w F51 – Pan-STARRS 1, Haleakala MPS 390688
2011 02 25.26071 10 25 26.07 +08 36 25.9 20.7 V G96 – Mt. Lemmon Survey MPS 805464
2011 02 25.26818 10 25 25.60 +08 36 26.9 20.8 V G96 – Mt. Lemmon Survey MPS 805464
2011 02 25.27572 10 25 25.17 +08 36 28.0 20.8 V G96 – Mt. Lemmon Survey MPS 805464
2011 02 25.28329 10 25 24.74 +08 36 29.2 20.9 V G96 – Mt. Lemmon Survey MPS 805464
2013 11 28.32630 03 44 20.443 +44 05 33.26 20.3 g F51 – Pan-STARRS 1, Haleakala MPS 805464
2013 11 28.33889 03 44 19.459 +44 05 28.98 20.5 g F51 – Pan-STARRS 1, Haleakala MPS 805464
2013 11 28.35119 03 44 18.468 +44 05 24.88 20.1 r F51 – Pan-STARRS 1, Haleakala MPS 805464
2015 01 20.42859 10 18 29.794 +14 10 50.56 22.5 w F51 – Pan-STARRS 1, Haleakala MPS 567834
2015 01 20.44716 10 18 28.943 +14 10 52.26 21.8 w F51 – Pan-STARRS 1, Haleakala MPS 567834
2015 01 20.46054 10 18 28.367 +14 10 53.63 21.5 w F51 – Pan-STARRS 1, Haleakala MPS 567834
2015 01 20.47400 10 18 27.772 +14 10 54.90 21.4 w F51 – Pan-STARRS 1, Haleakala MPS 567834
2015 01 22.44578 10 17 00.625 +14 14 13.94 21.2 w F51 – Pan-STARRS 1, Haleakala MPS 567834
2015 01 22.45937 10 16 59.989 +14 14 15.22 21.3 w F51 – Pan-STARRS 1, Haleakala MPS 567834
2015 01 22.47300 10 16 59.358 +14 14 16.70 21.5 w F51 – Pan-STARRS 1, Haleakala MPS 567834
2015 01 22.48672 10 16 58.715 +14 14 18.31 21.8 w F51 – Pan-STARRS 1, Haleakala MPS 567834
2015 02 11.35271 09 59 06.31 +14 55 06.5 20.8 V G96 – Mt. Lemmon Survey MPS 805464
2015 02 11.35879 09 59 05.97 +14 55 06.6 21.4 V G96 – Mt. Lemmon Survey MPS 805464
2015 02 11.36488 09 59 05.64 +14 55 07.5 20.5 V G96 – Mt. Lemmon Survey MPS 805464
2015 02 11.37096 09 59 05.21 +14 55 08.5 21.4 V G96 – Mt. Lemmon Survey MPS 805464
2015 03 15.24523 09 30 09.693 +15 36 01.49 21.4 w F51 – Pan-STARRS 1, Haleakala MPS 805464
2015 03 15.25802 09 30 09.151 +15 36 01.76 21.4 w F51 – Pan-STARRS 1, Haleakala MPS 805464
2015 03 15.27081 09 30 08.600 +15 36 01.69 21.3 w F51 – Pan-STARRS 1, Haleakala MPS 805464
2016 03 07.54713 14 11 19.564 -29 10 09.44 21.8 w F51 – Pan-STARRS 1, Haleakala MPS 805464
2016 03 07.55743 14 11 19.381 -29 10 13.74 21.8 w F51 – Pan-STARRS 1, Haleakala MPS 805464
2016 03 07.56774 14 11 19.195 -29 10 17.62 21.8 w F51 – Pan-STARRS 1, Haleakala MPS 805464
2016 03 07.57811 14 11 19.039 -29 10 21.20 21.5 w F51 – Pan-STARRS 1, Haleakala MPS 805464
2016 04 11.41310 13 46 31.631 -31 06 48.22 20.4 w F51 – Pan-STARRS 1, Haleakala MPS 805464
2016 04 11.42344 13 46 30.945 -31 06 48.12 20.5 w F51 – Pan-STARRS 1, Haleakala MPS 805464
2016 04 11.43378 13 46 30.268 -31 06 48.00 20.5 w F51 – Pan-STARRS 1, Haleakala MPS 805464
2016 04 11.44414 13 46 29.571 -31 06 47.85 20.6 w F51 – Pan-STARRS 1, Haleakala MPS 805464
2017 06 24.59216 01 10 24.892 +12 21 03.72 20.6 w F51 – Pan-STARRS 1, Haleakala MPS 805464
2017 06 24.59603 01 10 25.272 +12 21 07.56 20.3 w F51 – Pan-STARRS 1, Haleakala MPS 805464
2017 06 24.59989 01 10 25.639 +12 21 11.61 20.4 w F51 – Pan-STARRS 1, Haleakala MPS 805464
2017 06 24.60376 01 10 26.031 +12 21 15.68 20.5 w F51 – Pan-STARRS 1, Haleakala MPS 805464
2017 08 04.56281 02 08 55.941 +23 43 45.42 20.5 w F51 – Pan-STARRS 1, Haleakala MPS 809332
2017 08 04.58842 02 08 57.622 +23 44 09.71 20.1 w F51 – Pan-STARRS 1, Haleakala MPS 809332
2017 08 04.60079 02 08 58.431 +23 44 21.44 20.2 w F51 – Pan-STARRS 1, Haleakala MPS 809332
2017 09 02.47339 02 31 18.853 +30 50 11.56 20.3 i F51 – Pan-STARRS 1, Haleakala MPS 815045
2017 09 02.48373 02 31 19.042 +30 50 20.01 20.1 i F51 – Pan-STARRS 1, Haleakala MPS 815045
2017 09 02.49406 02 31 19.226 +30 50 28.53 20.1 i F51 – Pan-STARRS 1, Haleakala MPS 815045
2017 09 02.50442 02 31 19.419 +30 50 36.86 19.7 i F51 – Pan-STARRS 1, Haleakala MPS 815045
2017 09 30.34614 02 25 57.90 +35 59 31.1 19.1 V 703 – Catalina Sky Survey MPS 819210
2017 09 30.35117 02 25 57.77 +35 59 33.4 19.6 V 703 – Catalina Sky Survey MPS 819210
2017 09 30.35624 02 25 57.46 +35 59 36.1 19.6 V 703 – Catalina Sky Survey MPS 819210
2017 09 30.36136 02 25 57.28 +35 59 37.2 19.9 V 703 – Catalina Sky Survey MPS 819210
2017 10 11.32197 02 15 50.94 +37 04 38.6 19.4 G G96 – Mt. Lemmon Survey MPS 823509
2017 10 11.32667 02 15 50.61 +37 04 39.7 19.2 G G96 – Mt. Lemmon Survey MPS 823509
2017 10 11.33139 02 15 50.31 +37 04 41.2 19.4 G G96 – Mt. Lemmon Survey MPS 823509
2017 10 11.33605 02 15 49.98 +37 04 42.0 19.4 G G96 – Mt. Lemmon Survey MPS 823509
2017 10 15.24847 02 11 26.57 +37 17 09.9 18.6 G 703 – Catalina Sky Survey MPS 839161
2017 10 15.25426 02 11 26.17 +37 17 10.5 19.0 G 703 – Catalina Sky Survey MPS 839161
2017 10 15.25997 02 11 25.67 +37 17 11.3 19.2 G 703 – Catalina Sky Survey MPS 839161
2017 10 15.26569 02 11 25.25 +37 17 12.4 18.7 G 703 – Catalina Sky Survey MPS 839161
2017 10 22.23862 02 03 00.86 +37 24 20.8 18.7 G 703 – Catalina Sky Survey MPS 828290
2017 10 22.24357 02 03 00.46 +37 24 21.3 19.3 G 703 – Catalina Sky Survey MPS 828290
2017 10 22.24851 02 03 00.10 +37 24 21.7 18.5 G 703 – Catalina Sky Survey MPS 828290
2017 10 22.25338 02 02 59.70 +37 24 21.2 18.1 G 703 – Catalina Sky Survey MPS 828290
2017 10 24.53648 02 00 10.89 +37 22 30.9 19.3 R D29 – Purple Mountain Observatory, XuYi Station MPS 828290
2017 10 24.55327 02 00 09.63 +37 22 29.6 19.3 R D29 – Purple Mountain Observatory, XuYi Station MPS 828290
2017 10 24.57007 02 00 08.34 +37 22 28.8 19.1 R D29 – Purple Mountain Observatory, XuYi Station MPS 828290
2017 10 29.26788 01 54 24.07 +37 12 35.3 19.1 G G96 – Mt. Lemmon Survey MPS 831827
2017 10 29.27373 01 54 23.61 +37 12 34.3 19.2 G G96 – Mt. Lemmon Survey MPS 831827
2017 10 29.27969 01 54 23.17 +37 12 33.3 19.2 G G96 – Mt. Lemmon Survey MPS 831827
2017 10 29.28540 01 54 22.75 +37 12 32.3 19.3 G G96 – Mt. Lemmon Survey MPS 831827
2017 10 30.24908 01 53 13.79 +37 09 33.2 20.1 G 703 – Catalina Sky Survey MPS 831827
2017 10 30.25477 01 53 13.38 +37 09 30.5 19.3 G 703 – Catalina Sky Survey MPS 831827
2017 10 30.26015 01 53 13.03 +37 09 28.9 19.3 G 703 – Catalina Sky Survey MPS 831827
2017 10 30.26598 01 53 12.59 +37 09 28.0 19.1 G 703 – Catalina Sky Survey MPS 831827
2017 10 30.38870 01 53 03.817 +37 09 06.51 19.1 i F51 – Pan-STARRS 1, Haleakala MPS 831827
2017 10 30.40133 01 53 02.867 +37 09 04.08 19.0 i F51 – Pan-STARRS 1, Haleakala MPS 831827
2017 10 30.41400 01 53 01.921 +37 09 01.52 18.9 i F51 – Pan-STARRS 1, Haleakala MPS 831827
2017 10 30.42672 01 53 00.967 +37 08 58.98 18.8 i F51 – Pan-STARRS 1, Haleakala MPS 831827
2017 10 31.39803 01 51 51.94 +37 05 34.0 19.7 G 703 – Catalina Sky Survey MPS 831827
2017 10 31.40332 01 51 51.66 +37 05 32.4 20.5 G 703 – Catalina Sky Survey MPS 831827
2017 10 31.40863 01 51 51.24 +37 05 31.2 20.1 G 703 – Catalina Sky Survey MPS 831827
2017 10 31.41640 01 51 50.66 +37 05 29.6 19.7 G 703 – Catalina Sky Survey MPS 831827
2017 11 10.59042 01 41 01.54 +36 13 55.6 19.8 R D29 – Purple Mountain Observatory, XuYi Station MPS 839161
2017 11 10.60456 01 41 00.70 +36 13 50.6 20.1 R D29 – Purple Mountain Observatory, XuYi Station MPS 839161
